Location: Unspecified
(0.0000°N, 0.0000°E)
Time: 19:49:36
(UTC+00:00)

Orbcomm F1 (FM01) - Visible Passes

Search period start: 12 October 2024 00:00
Search period end: 22 October 2024 00:00
Orbit: 612 x 623 km, 70.0° (Epoch: 12 October)

Date Brightness Start Highest point End Pass type
(mag) Time Alt. Az. Time Alt. Az. Time Alt. Az.
14 Oct 9.4 19:28:06 10° S 19:28:35 13° S 19:28:35 13° S visible
15 Oct 8.9 19:44:26 10° SSW 19:46:12 24° SSW 19:46:12 24° SSW visible
16 Oct 9.0 18:25:04 10° SE 18:26:29 11° ESE 18:26:45 11° ESE visible
16 Oct 9.3 20:01:40 10° SW 20:03:55 23° WSW 20:03:55 23° WSW visible
17 Oct 7.9 18:39:15 10° SSE 18:43:07 29° ESE 18:44:34 24° ENE visible
17 Oct 10.1 20:20:48 10° W 20:21:45 11° WNW 20:21:45 11° WNW visible
18 Oct 6.9 18:55:15 10° SSW 18:59:41 80° ESE 19:02:28 22° NNE visible
19 Oct 8.5 19:12:08 10° SW 19:16:13 37° WNW 19:20:19 10° N visible
20 Oct 9.9 19:30:18 10° WSW 19:32:45 15° WNW 19:35:13 10° NW visible
21 Oct 7.1 18:05:54 10° S 18:10:16 60° ESE 18:14:37 10° NNE visible
